[[{"header":{"parameterUnit":"m.s-1","parameterCategory":1,"la1":30.2992,"la2":30.254,"lo1":-89.0895,"lo2":-89.0443,"dy":0.0025,"dx":0.0025,"nx":19,"ny":19,"refTime":"2026-05-23T03:00:00:Z","depth":0,"parameterNumber":2,"parameterNumberName":"U-component_of_WINDS"},"data":[0,0,0,-1.4712,-1.4712,-1.4753,-1.4753,-1.4798,-1.4798,0,0,0,0,0,0,0,0,0,0,0,-1.4694,-1.4694,-1.4712,-1.4713,-1.4753,-1.4753,-1.4798,-1.4798,0,0,0,0,0,0,0,0,0,0,0,-1.4694,-1.4694,-1.4694,-1.4713,-1.4753,-1.4753,-1.4798,-1.477,0,0,0,0,0,0,0,0,0,0,-1.4732,-1.471,-1.4694,-1.4694,-1.4713,-1.4753,-1.4753,-1.4769,-1.4772,-1.4776,0,-1.4777,0,-1.4788,-1.48,-1.4801,0,0,0,-1.4717,-1.4707,-1.4723,-1.4694,-1.4713,-1.4753,-1.4736,-1.4771,-1.4774,-1.478,-1.4778,-1.478,-1.4789,-1.4801,-1.4801,-1.4807,-1.4806,0,0,-1.4715,-1.4699,-1.4721,-1.4725,-1.4717,-1.4735,-1.4737,-1.4773,-1.477,-1.4778,-1.4781,-1.479,-1.4801,-1.4801,-1.4807,-1.4806,0,0,0,-1.4705,-1.4697,-1.4712,-1.4723,-1.4731,-1.4736,-1.4739,-1.4768,-1.4775,-1.4781,-1.479,-1.4801,-1.4802,-1.4807,-1.4807,-1.4779,0,0,0,-1.4704,-1.4691,-1.4711,-1.4701,-1.473,-1.475,-1.4733,-1.4772,-1.4777,-1.479,-1.4801,-1.4802,-1.4807,-1.4807,-1.478,-1.4769,0,0,0,-1.4694,-1.469,-1.4694,-1.47,-1.4717,-1.4749,-1.4758,-1.4773,-1.4782,-1.4801,-1.4802,-1.4807,-1.4807,-1.4781,-1.477,-1.4764,0,0,0,-1.4678,-1.467,-1.4693,-1.4689,-1.4716,-1.4732,-1.4758,-1.4771,-1.4784,-1.4801,-1.4807,-1.4807,-1.4782,-1.4772,-1.4765,-1.4754,-1.4748,0,0,-1.4659,-1.4667,-1.4666,-1.4688,-1.4695,-1.4727,-1.4731,-1.476,-1.4778,-1.4796,-1.4797,-1.478,-1.4771,-1.4764,-1.4725,-1.472,0,0,0,-1.4655,-1.4653,-1.4659,-1.4669,-1.469,-1.4707,-1.4737,-1.4748,-1.4764,-1.4783,-1.4778,-1.4772,-1.4769,-1.4765,-1.4761,-1.4759,-1.4804,-1.4804,-1.4804,-1.4604,-1.4626,-1.4625,-1.4652,-1.4663,-1.4693,-1.4704,-1.4724,-1.4745,-1.4744,-1.4748,-1.4722,-1.4716,-1.4713,-1.471,-1.4746,-1.4746,-1.4746,-1.4746,-1.4577,-1.4578,-1.4605,-1.4613,-1.4638,-1.4646,-1.4676,-1.4691,-1.4703,-1.472,-1.4719,-1.4733,-1.4707,-1.4706,-1.4744,-1.4744,-1.4745,-1.4745,-1.4745,-1.4544,-1.4549,-1.4561,-1.4579,-1.4591,-1.4621,-1.463,-1.4653,-1.4675,-1.4674,-1.4681,-1.4681,-1.4683,-1.4676,-1.4676,-1.4676,-1.4676,-1.4676,-1.4676,-1.4504,-1.452,-1.4524,-1.4545,-1.4555,-1.4572,-1.4604,-1.4615,-1.4633,-1.4649,-1.465,-1.467,-1.4701,-1.4707,-1.4674,-1.4674,-1.4675,-1.4675,-1.4675,-1.4465,-1.4478,-1.4484,-1.4493,-1.4521,-1.4531,-1.4561,-1.4582,-1.4595,-1.4599,-1.4621,-1.4641,-1.4651,-1.4654,-1.4659,-1.4617,-1.4617,-1.4617,-1.4617,-1.4436,-1.4444,-1.4454,-1.4469,-1.4486,-1.4513,-1.4521,-1.4547,-1.4576,-1.4585,-1.4596,-1.4605,-1.4608,-1.4617,-1.4621,-1.4626,-1.4576,-1.4576,-1.4576,-1.4412,-1.4423,-1.4423,-1.4449,-1.4473,-1.4494,-1.4501,-1.4518,-1.4554,-1.4574,-1.4593,-1.4595,-1.4611,-1.4615,-1.4632,-1.4638,-1.4648,0,0]},{"header":{"parameterUnit":"m.s-1","parameterCategory":1,"la1":30.2992,"la2":30.254,"lo1":-89.0895,"lo2":-89.0443,"dy":0.0025,"dx":0.0025,"nx":19,"ny":19,"refTime":"2026-05-23T03:00:00:Z","depth":0,"parameterNumber":3,"parameterNumberName":"V-component_of_WINDS"},"data":[0,0,0,3.4369,3.4371,3.4418,3.4418,3.4485,3.4486,0,0,0,0,0,0,0,0,0,0,0,3.4361,3.4362,3.4369,3.4371,3.4418,3.4418,3.4485,3.4486,0,0,0,0,0,0,0,0,0,0,0,3.4361,3.4362,3.4363,3.4371,3.4418,3.4418,3.4485,3.4447,0,0,0,0,0,0,0,0,0,0,3.4399,3.4398,3.4362,3.4363,3.4371,3.4418,3.4418,3.4445,3.4449,3.4468,0,3.4487,0,3.4488,3.4491,3.4491,0,0,0,3.4366,3.4394,3.4402,3.4363,3.4372,3.4418,3.4395,3.4447,3.4452,3.4474,3.4488,3.449,3.4489,3.4492,3.4492,3.4621,3.4622,0,0,3.4363,3.4372,3.4399,3.4406,3.4401,3.4394,3.4397,3.445,3.4466,3.4488,3.4492,3.449,3.4492,3.4493,3.462,3.4621,0,0,0,3.4359,3.4371,3.4377,3.4403,3.4411,3.4395,3.4399,3.4463,3.4464,3.4492,3.4491,3.4493,3.4494,3.4619,3.4621,3.4673,0,0,0,3.4357,3.4368,3.4376,3.4382,3.441,3.4438,3.4411,3.4461,3.4467,3.4491,3.4493,3.4494,3.4618,3.462,3.4669,3.4696,0,0,0,3.4356,3.4368,3.4377,3.4383,3.4403,3.4437,3.4441,3.4462,3.4466,3.4492,3.4495,3.4618,3.462,3.4666,3.469,3.4734,0,0,0,3.4357,3.4421,3.4378,3.4449,3.4403,3.4469,3.4441,3.4489,3.4517,3.4493,3.4619,3.4621,3.4665,3.4687,3.4731,3.4773,3.4791,0,0,3.4442,3.4431,3.4472,3.4435,3.4512,3.4461,3.4544,3.456,3.4552,3.4598,3.4601,3.467,3.469,3.4733,3.4888,3.4902,0,0,0,3.4502,3.4532,3.455,3.4578,3.4593,3.4608,3.4611,3.4617,3.4656,3.4579,3.4697,3.4708,3.4733,3.4753,3.4765,3.4786,3.463,3.463,3.4629,3.4636,3.4626,3.4693,3.4688,3.4716,3.4719,3.474,3.4748,3.4727,3.4756,3.4769,3.4865,3.4888,3.4898,3.492,3.479,3.479,3.479,3.479,3.4761,3.4802,3.4775,3.4831,3.4819,3.4865,3.487,3.4854,3.4895,3.4853,3.4874,3.4831,3.4914,3.4933,3.4794,3.4793,3.4793,3.4793,3.4792,3.4848,3.4866,3.4874,3.4916,3.4948,3.494,3.4982,3.4968,3.4956,3.4977,3.4991,3.499,3.4988,3.4984,3.4985,3.4985,3.4985,3.4985,3.4986,3.4937,3.4944,3.4981,3.5004,3.5022,3.5043,3.5047,3.5063,3.5078,3.5064,3.5064,3.5042,3.4924,3.4895,3.4991,3.499,3.4989,3.4989,3.4988,3.5069,3.5038,3.5096,3.5114,3.514,3.5174,3.5157,3.5192,3.5203,3.5224,3.5197,3.5112,3.5098,3.5088,3.5065,3.5198,3.5198,3.5198,3.5198,3.5144,3.5137,3.5195,3.5224,3.5251,3.5242,3.5308,3.5312,3.5311,3.5317,3.5295,3.5263,3.5253,3.5246,3.5232,3.521,3.5377,3.5378,3.5378,3.5226,3.5221,3.5281,3.5281,3.5301,3.5318,3.538,3.5414,3.5405,3.5385,3.5322,3.5314,3.5261,3.5244,3.5223,3.5202,3.5161,0,0]}]]